SAUDISAT 5A

Last updated on Tue Jul 08 2025 00:02:30 GMT+0000 (Coordinated Universal Time)

1 43831U 18102A 25188.58689489 .00004060 00000+0 17387-3 0 9990 2 43831 97.3571 251.8968 0009038 270.5758 89.4443 15.23315009363133
UTC large
Height (km)
Speed (km/s)
/
Latitude / Longitude
Inclination (degrees)
Orbital Period (minutes)
Azimuth
Elevation
Range (km)
Doppler Factor

Next 0 passes for location: London (51.5072 / 0.1276)

Sorry there are no passes over London.